| time (UTC) | temp C | wind direction | speed KPH | gust KPH | rain 1hr cm | rain 24hr cm | rain mn cm | humidity % | barometer mb |
| 20260507013058 | 10 | 0.0 | 3.2 | 0.05 | 12.22 | 0.05 | 99 | 1010.1 | |
| 20260507012033 | 10 | 0.0 | 3.2 | 0.05 | 12.22 | 0.05 | 99 | 1010.1 | |
| 20260507011058 | 10 | 0.0 | 3.2 | 0.05 | 12.22 | 0.05 | 99 | 1010.1 | |
| 20260507010034 | 10 | 0.0 | 1.6 | 0.05 | 12.22 | 0.05 | 99 | 1010.2 | |
| 20260507005058 | 10 | 0.0 | 1.6 | 0.03 | 12.19 | 0.03 | 99 | 1010.1 | |
| 20260507004035 | 10 | 0.0 | 0.0 | 0.00 | 12.14 | 0.00 | 99 | 1009.9 | |
| 20260507003058 | 10 | 0.0 | 1.6 | 0.00 | 12.14 | 0.00 | 99 | 1009.8 | |
| 20260507002034 | 10 | 0.0 | 1.6 | 0.00 | 12.14 | 0.00 | 99 | 1009.8 | |
| 20260507001058 | 10 | 0.0 | 0.0 | 0.00 | 12.14 | 0.00 | 99 | 1009.9 | |
| 20260507000747 | 10 | 0.0 | 0.0 | 0.00 | 12.14 | 0.00 | 99 | 1009.9 | |
| 20260506235058 | 10 | 0.0 | 1.6 | 0.00 | 12.14 | 0.00 | 99 | 1009.9 | |
| 20260506234034 | 10 | 0.0 | 1.6 | 0.00 | 12.14 | 0.00 | 99 | 1009.9 | |
| 20260506233059 | 10 | 0.0 | 3.2 | 0.00 | 12.14 | 0.00 | 99 | 1009.9 | |
| 20260506232034 | 10 | 0.0 | 3.2 | 0.00 | 12.14 | 0.00 | 99 | 1009.9 | |
| 20260506231059 | 10 | 0.0 | 3.2 | 0.00 | 12.14 | 0.00 | 99 | 1009.8 | |
| 20260506230034 | 10 | 0.0 | 3.2 | 0.00 | 12.14 | 0.00 | 99 | 1009.8 | |
| 20260506225059 | 10 | 0.0 | 1.6 | 0.00 | 12.14 | 0.00 | 99 | 1009.7 | |
| 20260506224034 | 10 | 0.0 | 1.6 | 0.00 | 12.14 | 0.00 | 99 | 1009.6 | |
| 20260506223059 | 10 | 0.0 | 3.2 | 0.00 | 12.14 | 0.00 | 99 | 1009.6 | |
| 20260506222034 | 10 | 0.0 | 3.2 | 0.00 | 12.14 | 0.00 | 99 | 1009.6 | |
| 20260506221058 | 10 | 0.0 | 1.6 | 0.00 | 12.14 | 0.00 | 99 | 1009.6 | |
| 20260506220746 | 10 | 338 | 0.0 | 3.2 | 0.00 | 12.14 | 0.00 | 99 | 1009.6 |
| 20260506215058 | 10 | 0.0 | 3.2 | 0.00 | 12.14 | 12.14 | 99 | 1009.5 | |
| 20260506214035 | 10 | 0.0 | 3.2 | 0.00 | 12.14 | 12.14 | 99 | 1009.6 | |
| 20260506213059 | 10 | 0.0 | 3.2 | 0.00 | 12.14 | 12.14 | 99 | 1009.6 | |
| 20260506212035 | 10 | 0.0 | 3.2 | 0.00 | 12.14 | 12.14 | 99 | 1009.5 | |
| 20260506211058 | 9 | 0.0 | 1.6 | 0.00 | 12.14 | 12.14 | 99 | 1009.4 | |
| 20260506210034 | 9 | 0.0 | 1.6 | 0.00 | 12.14 | 12.14 | 99 | 1009.2 | |
| 20260506205059 | 9 | 0 | 0.0 | 3.2 | 0.00 | 12.14 | 12.14 | 99 | 1009.3 |
| 20260506204034 | 10 | 0.0 | 1.6 | 0.00 | 12.14 | 12.14 | 99 | 1009.2 | |
| 20260506203058 | 10 | 0.0 | 3.2 | 0.00 | 12.14 | 12.14 | 99 | 1009.2 | |
| 20260506202035 | 10 | 0.0 | 3.2 | 0.00 | 12.14 | 12.14 | 99 | 1009.1 | |
| 20260506201059 | 10 | 0.0 | 3.2 | 0.00 | 12.19 | 12.14 | 99 | 1009.2 | |
| 20260506200747 | 10 | 0.0 | 3.2 | 0.00 | 12.22 | 12.14 | 99 | 1009.1 | |
| 20260506195059 | 10 | 0.0 | 1.6 | 0.00 | 12.22 | 12.14 | 99 | 1008.9 | |
| 20260506194034 | 10 | 0.0 | 3.2 | 0.03 | 12.24 | 12.14 | 99 | 1008.7 | |
| 20260506193058 | 10 | 0.0 | 1.6 | 0.10 | 12.24 | 12.14 | 99 | 1008.5 | |
| 20260506192035 | 10 | 0.0 | 0.0 | 0.30 | 12.24 | 12.14 | 99 | 1008.2 | |
| 20260506191059 | 10 | 0.0 | 3.2 | 0.71 | 12.24 | 12.14 | 99 | 1008.0 | |
| 20260506190035 | 10 | 339 | 1.6 | 4.8 | 0.76 | 12.24 | 12.14 | 99 | 1007.5 |
| 20260506185059 | 10 | 45 | 0.0 | 4.8 | 0.76 | 12.24 | 12.14 | 99 | 1007.3 |
| 20260506184035 | 10 | 90 | 0.0 | 3.2 | 0.71 | 12.22 | 12.12 | 99 | 1008.2 |
| 20260506183059 | 10 | 0.0 | 3.2 | 0.66 | 12.14 | 12.06 | 99 | 1008.9 | |
| 20260506182035 | 10 | 248 | 0.0 | 4.8 | 0.46 | 11.94 | 11.86 | 99 | 1008.9 |
| 20260506181059 | 10 | 0.0 | 1.6 | 0.03 | 11.53 | 11.43 | 99 | 1008.0 | |
| 20260506180347 | 10 | 0.0 | 0.0 | 0.00 | 11.48 | 11.40 | 99 | 1007.4 | |
| 20260506175059 | 10 | 0.0 | 1.6 | 0.00 | 11.48 | 11.40 | 99 | 1007.1 | |
| 20260506174034 | 11 | 0.0 | 0.0 | 0.00 | 11.48 | 11.40 | 99 | 1007.0 | |
| 20260506173100 | 11 | 0.0 | 0.0 | 0.00 | 11.48 | 11.40 | 99 | 1006.8 | |
| 20260506172035 | 11 | 0.0 | 1.6 | 0.00 | 11.48 | 11.40 | 99 | 1006.7 | |
| 20260506171059 | 11 | 0.0 | 0.0 | 0.00 | 11.53 | 11.40 | 99 | 1006.5 | |
| 20260506170035 | 11 | 0.0 | 0.0 | 0.00 | 11.56 | 11.40 | 99 | 1006.6 | |
| 20260506165059 | 11 | 0.0 | 1.6 | 0.00 | 11.56 | 11.40 | 99 | 1006.5 | |
| 20260506164035 | 11 | 0.0 | 0.0 | 0.00 | 11.56 | 11.40 | 99 | 1006.5 | |
| 20260506163100 | 11 | 0.0 | 1.6 | 0.00 | 11.58 | 11.40 | 99 | 1006.4 | |
| 20260506162034 | 11 | 0.0 | 1.6 | 0.00 | 11.58 | 11.40 | 99 | 1005.8 | |
| 20260506161058 | 11 | 0 | 0.0 | 3.2 | 0.00 | 11.61 | 11.40 | 99 | 1005.4 |
| 20260506160259 | 11 | 0.0 | 3.2 | 0.00 | 11.61 | 11.40 | 99 | 1005.3 | |
| 20260506155100 | 11 | 0.0 | 3.2 | 0.23 | 11.63 | 11.40 | 98 | 1005.5 | |
| 20260506154035 | 11 | 0.0 | 3.2 | 0.56 | 11.71 | 11.40 | 98 | 1005.6 | |
| 20260506153101 | 11 | 0.0 | 3.2 | 1.09 | 11.73 | 11.40 | 98 | 1005.9 | |
| 20260506152035 | 11 | 0.0 | 3.2 | 1.75 | 11.79 | 11.40 | 99 | 1005.9 | |
| 20260506151059 | 11 | 0.0 | 1.6 | 2.51 | 11.81 | 11.40 | 99 | 1005.8 | |
| 20260506150035 | 11 | 0.0 | 3.2 | 3.15 | 11.81 | 11.40 | 99 | 1005.8 | |
| 20260506145059 | 10 | 0.0 | 1.6 | 4.80 | 11.61 | 11.15 | 99 | 1006.2 | |
| 20260506144035 | 10 | 0.0 | 1.6 | 7.49 | 11.28 | 10.82 | 99 | 1006.4 | |
| 20260506143059 | 10 | 0 | 0.0 | 3.2 | 8.74 | 10.77 | 10.31 | 99 | 1006.3 |
| 20260506142035 | 9 | 0.0 | 3.2 | 8.43 | 10.11 | 9.65 | 99 | 1006.1 | |
| 20260506141100 | 10 | 341 | 0.0 | 6.4 | 7.75 | 9.32 | 8.89 | 98 | 1006.1 |
| 20260506140123 | 10 | 88 | 0.0 | 6.4 | 7.11 | 8.71 | 8.26 | 95 | 1006.2 |
| 20260506135059 | 11 | 7 | 3.2 | 17.7 | 5.28 | 6.81 | 6.35 | 92 | 1006.5 |
| 20260506134035 | 13 | 0.0 | 3.2 | 2.26 | 3.78 | 3.33 | 90 | 1006.5 | |
| 20260506133101 | 15 | 0.0 | 1.6 | 0.51 | 2.03 | 1.60 | 88 | 1006.2 | |
| 20260506132035 | 15 | 0.0 | 1.6 | 0.15 | 1.70 | 1.22 | 88 | 1006.2 | |
| 20260506131059 | 15 | 0.0 | 1.6 | 0.05 | 1.63 | 1.14 | 88 | 1006.3 | |
| 20260506130035 | 15 | 0.0 | 1.6 | 0.10 | 1.63 | 1.14 | 88 | 1006.3 | |
| 20260506125059 | 15 | 0.0 | 1.6 | 0.03 | 1.55 | 1.09 | 88 | 1006.5 | |
| 20260506124036 | 15 | 0.0 | 3.2 | 0.03 | 1.55 | 1.09 | 88 | 1006.4 | |
| 20260506123059 | 15 | 0.0 | 3.2 | 0.03 | 1.60 | 1.09 | 86 | 1006.4 | |
| 20260506122035 | 15 | 0.0 | 1.6 | 0.03 | 1.60 | 1.09 | 86 | 1006.3 | |
| 20260506121100 | 16 | 0.0 | 1.6 | 0.03 | 1.60 | 1.09 | 84 | 1006.2 | |
| 20260506120523 | 16 | 0.0 | 1.6 | 0.00 | 1.55 | 1.04 | 82 | 1006.4 | |
| 20260506115059 | 16 | 0.0 | 1.6 | 0.00 | 1.60 | 1.04 | 83 | 1006.2 | |
| 20260506114035 | 16 | 0.0 | 3.2 | 0.00 | 1.63 | 1.04 | 82 | 1006.3 | |
| 20260506113100 | 16 | 0.0 | 1.6 | 0.00 | 1.65 | 1.04 | 85 | 1006.4 | |
| 20260506112036 | 15 | 0.0 | 3.2 | 0.00 | 1.65 | 1.04 | 86 | 1006.5 | |
| 20260506111059 | 15 | 0.0 | 1.6 | 0.00 | 1.68 | 1.04 | 87 | 1006.8 | |
| 20260506110036 | 15 | 0.0 | 1.6 | 0.00 | 1.68 | 1.04 | 88 | 1006.9 | |
| 20260506105059 | 15 | 0 | 0.0 | 4.8 | 0.00 | 1.70 | 1.04 | 89 | 1006.9 |
| 20260506104036 | 15 | 188 | 3.2 | 22.5 | 0.00 | 1.70 | 1.04 | 90 | 1007.0 |
| 20260506103100 | 15 | 0.0 | 1.6 | 0.00 | 1.75 | 1.04 | 93 | 1006.8 | |
| 20260506102035 | 14 | 0.0 | 1.6 | 0.00 | 1.78 | 1.04 | 95 | 1007.0 | |
| 20260506101059 | 14 | 0.0 | 1.6 | 0.00 | 1.78 | 1.04 | 98 | 1006.9 | |
| 20260506100923 | 13 | 0.0 | 1.6 | 0.00 | 1.80 | 1.04 | 99 | 1007.0 | |
| 20260506095100 | 13 | 0.0 | 1.6 | 0.13 | 1.80 | 1.04 | 99 | 1007.0 | |
| 20260506094035 | 13 | 0.0 | 3.2 | 0.18 | 1.83 | 1.04 | 98 | 1007.0 | |
| 20260506093100 | 13 | 0.0 | 1.6 | 0.23 | 1.85 | 1.04 | 97 | 1007.0 | |
| 20260506092038 | 12 | 0.0 | 1.6 | 0.33 | 1.85 | 1.04 | 97 | 1006.9 | |
| 20260506091059 | 12 | 0.0 | 1.6 | 0.53 | 1.88 | 1.04 | 97 | 1006.5 | |
| 20260506090036 | 12 | 0.0 | 1.6 | 0.64 | 1.88 | 1.04 | 97 | 1005.7 | |
| 20260506085101 | 12 | 0.0 | 1.6 | 0.56 | 1.78 | 0.94 | 97 | 1006.0 | |
| 20260506084036 | 12 | 0.0 | 3.2 | 0.51 | 1.70 | 0.86 | 97 | 1006.8 | |
| 20260506083059 | 12 | 0.0 | 3.2 | 0.48 | 1.65 | 0.81 | 97 | 1007.1 | |
| 20260506082036 | 12 | 0.0 | 1.6 | 0.38 | 1.60 | 0.71 | 97 | 1007.2 | |
| 20260506081100 | 12 | 0.0 | 1.6 | 0.18 | 1.42 | 0.51 | 97 | 1007.1 | |
| 20260506080748 | 12 | 0.0 | 1.6 | 0.10 | 1.35 | 0.43 | 97 | 1007.2 | |
| 20260506073059 | 13 | 0.0 | 1.6 | 0.03 | 1.35 | 0.33 | 97 | 1007.0 | |
| 20260506072036 | 13 | 0.0 | 1.6 | 0.03 | 1.42 | 0.33 | 97 | 1007.0 | |
| 20260506071100 | 13 | 0.0 | 3.2 | 0.03 | 1.47 | 0.33 | 97 | 1007.1 | |
| 20260506062035 | 13 | 0.0 | 1.6 | 0.03 | 1.93 | 0.30 | 97 | 1007.3 | |
| 20260506061100 | 13 | 0.0 | 1.6 | 0.05 | 1.98 | 0.30 | 97 | 1007.4 | |
| 20260506060748 | 12 | 0.0 | 3.2 | 0.05 | 1.98 | 0.28 | 97 | 1007.3 | |
| 20260506051100 | 12 | 0.0 | 1.6 | 0.15 | 1.98 | 0.23 | 97 | 1007.6 | |
| 20260506045059 | 12 | 0.0 | 1.6 | 0.05 | 1.88 | 0.15 | 97 | 1007.8 | |
| 20260506044036 | 12 | 0.0 | 1.6 | 0.05 | 1.88 | 0.15 | 97 | 1007.9 | |
| 20260506043100 | 12 | 0.0 | 1.6 | 0.05 | 1.88 | 0.15 | 97 | 1007.9 | |
| 20260506042036 | 12 | 0.0 | 3.2 | 0.05 | 1.85 | 0.13 | 97 | 1008.0 | |
| 20260506041100 | 12 | 0.0 | 1.6 | 0.03 | 1.83 | 0.10 | 97 | 1008.1 | |
| 20260506040748 | 12 | 0.0 | 1.6 | 0.05 | 1.83 | 0.10 | 97 | 1008.2 | |
| 20260506035100 | 12 | 0.0 | 3.2 | 0.05 | 1.83 | 0.10 | 97 | 1008.1 | |
| 20260506034036 | 12 | 0.0 | 3.2 | 0.05 | 1.83 | 0.10 | 97 | 1008.1 | |
| 20260506033100 | 12 | 0.0 | 1.6 | 0.10 | 1.83 | 0.10 | 97 | 1008.1 | |
| 20260506032036 | 12 | 0.0 | 1.6 | 0.05 | 1.80 | 0.05 | 97 | 1008.0 | |
| 20260506031100 | 12 | 0.0 | 1.6 | 0.05 | 1.80 | 0.05 | 97 | 1008.3 | |
| 20260506030036 | 12 | 0.0 | 3.2 | 0.03 | 1.78 | 0.03 | 97 | 1008.6 | |
| 20260506025100 | 12 | 0.0 | 1.6 | 0.03 | 1.78 | 0.03 | 97 | 1008.8 | |
| 20260506024036 | 12 | 0.0 | 1.6 | 0.03 | 1.78 | 0.03 | 97 | 1008.8 | |
| 20260506023101 | 12 | 0.0 | 1.6 | 0.00 | 1.75 | 0.00 | 97 | 1009.0 | |
| 20260506022036 | 12 | 0 | 0.0 | 4.8 | 0.00 | 1.75 | 0.00 | 97 | 1009.1 |
| 20260506021100 | 12 | 106 | 1.6 | 6.4 | 0.00 | 1.75 | 0.00 | 97 | 1009.2 |
| 20260506020748 | 12 | 0.0 | 3.2 | 0.00 | 1.75 | 0.00 | 97 | 1009.3 | |
| 20260506015100 | 12 | 0.0 | 1.6 | 0.00 | 1.75 | 0.00 | 97 | 1009.2 | |
| 20260506014037 | 12 | 0.0 | 3.2 | 0.00 | 1.75 | 0.00 | 97 | 1009.2 |